[[{"header":{"parameterUnit":"m.s-1","parameterCategory":2,"la1":30.2992,"la2":30.254,"lo1":-89.0895,"lo2":-89.0443,"dy":0.0025,"dx":0.0025,"nx":19,"ny":19,"refTime":"2026-05-20T09:00:00:Z","depth":"0","parameterNumber":2,"parameterNumberName":"U-component_of_CURRENTS"},"data":[0,0,0,0.3772,0.3778,0.4042,0.4043,0.4252,0.4254,0,0,0,0,0,0,0,0,0,0,0,0.3661,0.3663,0.3772,0.3779,0.4042,0.4043,0.4252,0.4254,0,0,0,0,0,0,0,0,0,0,0,0.366,0.3662,0.3664,0.378,0.4042,0.4043,0.4252,0.4082,0,0,0,0,0,0,0,0,0,0,0.384,0.375,0.3662,0.3664,0.3782,0.4042,0.4043,0.4075,0.4092,0.41,0,0.4145,0,0.4218,0.4266,0.4267,0,0,0,0.3767,0.3735,0.3824,0.3665,0.3784,0.4041,0.392,0.4085,0.4105,0.4123,0.4149,0.4158,0.4221,0.4267,0.4268,0.4461,0.4462,0,0,0.3753,0.3692,0.381,0.3836,0.3857,0.3912,0.3928,0.4099,0.4107,0.415,0.4164,0.4225,0.4268,0.427,0.4461,0.4461,0,0,0,0.3719,0.3681,0.3768,0.3825,0.3892,0.392,0.3939,0.4099,0.4133,0.4167,0.4227,0.427,0.4272,0.446,0.4461,0.4452,0,0,0,0.3709,0.3664,0.3761,0.3725,0.3889,0.4016,0.3934,0.4121,0.4144,0.4226,0.427,0.4274,0.4459,0.446,0.445,0.4443,0,0,0,0.3648,0.3658,0.3693,0.3722,0.3847,0.4015,0.4059,0.4128,0.418,0.4267,0.4274,0.4458,0.446,0.4449,0.4442,0.4479,0,0,0,0.357,0.3649,0.3691,0.3806,0.3844,0.4035,0.4059,0.4189,0.4265,0.427,0.4459,0.4461,0.4449,0.4441,0.4477,0.4506,0.4515,0,0,0.3632,0.3654,0.3729,0.3775,0.3951,0.3997,0.4165,0.4262,0.4292,0.439,0.4396,0.4451,0.4442,0.4479,0.4609,0.4615,0,0,0,0.3727,0.3771,0.3835,0.3947,0.4077,0.4176,0.4289,0.4319,0.4405,0.4352,0.449,0.4485,0.4508,0.4524,0.4529,0.427,0.4469,0.4469,0.4469,0.3671,0.3788,0.3911,0.4062,0.4159,0.4308,0.4375,0.4435,0.4465,0.4492,0.4507,0.4568,0.4586,0.459,0.4323,0.4543,0.4543,0.4543,0.4543,0.3761,0.3861,0.395,0.4105,0.4205,0.4318,0.4449,0.4477,0.4564,0.455,0.4573,0.455,0.4595,0.4309,0.4543,0.4543,0.4543,0.4543,0.4543,0.3752,0.3826,0.3897,0.4077,0.418,0.4316,0.4402,0.4497,0.4543,0.4576,0.4618,0.4618,0.4341,0.4594,0.4594,0.4595,0.4595,0.4595,0.4595,0.3729,0.3818,0.3916,0.4067,0.414,0.4248,0.4388,0.4439,0.4556,0.4624,0.4624,0.4339,0.4584,0.4554,0.4597,0.4597,0.4597,0.4596,0.4596,0.3838,0.3813,0.3969,0.4042,0.4188,0.4227,0.4361,0.4486,0.4555,0.462,0.4374,0.4663,0.4672,0.4669,0.4642,0.4706,0.4706,0.4706,0.4706,0.3861,0.3877,0.4025,0.4115,0.4196,0.4231,0.4222,0.4298,0.4346,0.4291,0.4269,0.4208,0.4215,0.4192,0.4199,0.4161,0.4101,0.4099,0.4098,0.3942,0.3968,0.4056,0.4113,0.4194,0.4173,0.4081,0.3957,0.3995,0.4042,0.3894,0.392,0.3796,0.3829,0.377,0.3801,0.3732,0,0]},{"header":{"parameterUnit":"m.s-1","parameterCategory":2,"la1":30.2992,"la2":30.254,"lo1":-89.0895,"lo2":-89.0443,"dy":0.0025,"dx":0.0025,"nx":19,"ny":19,"refTime":"2026-05-20T09:00:00:Z","depth":"0","parameterNumber":3,"parameterNumberName":"V-component_of_CURRENTS"},"data":[0,0,0,-0.0088,-0.0091,-0.0274,-0.0275,-0.0548,-0.055,0,0,0,0,0,0,0,0,0,0,0,-0.0021,-0.0022,-0.0087,-0.0091,-0.0273,-0.0275,-0.0547,-0.055,0,0,0,0,0,0,0,0,0,0,0,-0.0021,-0.0022,-0.0023,-0.0092,-0.0273,-0.0275,-0.0547,-0.0405,0,0,0,0,0,0,0,0,0,0,-0.0226,-0.0152,-0.0022,-0.0023,-0.0092,-0.0273,-0.0275,-0.0399,-0.0414,-0.0468,0,-0.0478,0,-0.0512,-0.0566,-0.0567,0,0,0,-0.0118,-0.0139,-0.0181,-0.0023,-0.0094,-0.0273,-0.0199,-0.0407,-0.0425,-0.0489,-0.0482,-0.0492,-0.0516,-0.0568,-0.0569,-0.0761,-0.0762,0,0,-0.0108,-0.0071,-0.0168,-0.0191,-0.0119,-0.0193,-0.0204,-0.0418,-0.0432,-0.0483,-0.0498,-0.0521,-0.057,-0.0572,-0.0761,-0.0762,0,0,0,-0.0061,-0.0063,-0.0101,-0.018,-0.0206,-0.0197,-0.021,-0.0423,-0.0432,-0.0501,-0.0524,-0.0571,-0.0574,-0.0761,-0.0761,-0.0653,0,0,0,-0.0056,-0.0035,-0.0096,-0.0079,-0.02,-0.0312,-0.021,-0.0418,-0.0443,-0.0522,-0.0571,-0.0577,-0.0761,-0.0761,-0.0655,-0.0554,0,0,0,-0.0017,-0.0031,-0.0043,-0.0075,-0.0142,-0.0308,-0.0333,-0.0424,-0.0456,-0.0568,-0.0577,-0.0761,-0.0761,-0.0657,-0.056,-0.0444,0,0,0,0.0012,-0.0006,-0.0042,-0.0088,-0.014,-0.0274,-0.0332,-0.0454,-0.0549,-0.0573,-0.0761,-0.0761,-0.0658,-0.0564,-0.0449,-0.0269,-0.0231,0,0,0.0006,-0.0006,-0.0038,-0.0075,-0.0183,-0.0252,-0.0355,-0.0494,-0.0572,-0.0698,-0.0703,-0.0654,-0.056,-0.0445,-0.0302,-0.0262,0,0,0,-0.0032,-0.005,-0.0095,-0.0165,-0.0264,-0.0318,-0.0463,-0.0499,-0.0596,-0.0625,-0.0697,-0.064,-0.057,-0.0475,-0.0445,-0.0361,-0.0764,-0.0764,-0.0764,0.0008,-0.006,-0.0116,-0.0204,-0.0275,-0.0391,-0.042,-0.0494,-0.0603,-0.0613,-0.0585,-0.0463,-0.0367,-0.034,-0.0259,-0.0654,-0.0653,-0.0653,-0.0653,-0.0008,-0.0031,-0.0101,-0.017,-0.0227,-0.03,-0.0368,-0.041,-0.0411,-0.0523,-0.0461,-0.0408,-0.0299,-0.0226,-0.0647,-0.0648,-0.0648,-0.0649,-0.065,0.001,0.0005,-0.0037,-0.0088,-0.0113,-0.0188,-0.013,-0.0203,-0.0267,-0.0228,-0.0116,-0.0116,-0.0014,-0.02,-0.0199,-0.0198,-0.0197,-0.0196,-0.0196,0.0077,0.0037,0.0047,0.0004,0.0018,0.0036,0.0025,0.0061,0.0107,0.0059,0.0059,0.0046,-0.0324,-0.0299,-0.0181,-0.0184,-0.0186,-0.0187,-0.0188,0.0123,0.0133,0.0147,0.0166,0.02,0.0316,0.0298,0.045,0.0469,0.0544,0.0493,0.0209,0.0214,0.0188,0.0224,0.0471,0.0471,0.0471,0.0471,0.0202,0.0189,0.0252,0.0306,0.0384,0.0444,0.0719,0.0848,0.0889,0.0929,0.0808,0.0728,0.0697,0.0722,0.0685,0.0725,0.1094,0.1094,0.1095,0.0274,0.0273,0.0342,0.0366,0.0461,0.062,0.0948,0.128,0.1306,0.1119,0.0897,0.0871,0.0736,0.0682,0.0694,0.0634,0.0688,0,0]}],[{"header":{"parameterUnit":"m.s-1","parameterCategory":2,"la1":30.2992,"la2":30.254,"lo1":-89.0895,"lo2":-89.0443,"dy":0.0025,"dx":0.0025,"nx":19,"ny":19,"refTime":"2026-05-20T09:00:00:Z","depth":"2","parameterNumber":2,"parameterNumberName":"U-component_of_CURRENTS"},"data":[0,0,0,0.2115,0.2117,0.2278,0.2279,0.2437,0.2437,0,0,0,0,0,0,0,0,0,0,0,0.2094,0.2095,0.2115,0.2117,0.2278,0.2279,0.2437,0.2438,0,0,0,0,0,0,0,0,0,0,0,0.2094,0.2095,0.2096,0.2118,0.2277,0.2279,0.2437,0.234,0,0,0,0,0,0,0,0,0,0,0.2195,0.2212,0.2094,0.2096,0.2118,0.2277,0.2279,0.2336,0.2345,0.2334,0,0.2355,0,0.236,0.2442,0.2443,0,0,0,0.2169,0.2205,0.2182,0.2096,0.2119,0.2277,0.222,0.2342,0.2353,0.2347,0.2357,0.2362,0.2363,0.2443,0.2443,0.2606,0.2607,0,0,0.216,0.2189,0.2175,0.2189,0.2153,0.2214,0.2224,0.235,0.2394,0.2358,0.2366,0.2365,0.2443,0.2444,0.2605,0.2607,0,0,0,0.21,0.2183,0.2162,0.2183,0.2194,0.2218,0.2229,0.2392,0.2365,0.2367,0.2367,0.2444,0.2444,0.2604,0.2606,0.2716,0,0,0,0.2097,0.2142,0.2157,0.2186,0.2191,0.2311,0.2269,0.2359,0.2372,0.2366,0.2444,0.2445,0.2602,0.2605,0.271,0.273,0,0,0,0.2088,0.2143,0.2144,0.2185,0.222,0.2308,0.2297,0.2363,0.2368,0.2443,0.2445,0.2601,0.2604,0.2705,0.2722,0.2788,0,0,0,0.2135,0.2132,0.2147,0.2132,0.2217,0.2267,0.2297,0.2364,0.2426,0.2444,0.2602,0.2605,0.2703,0.2717,0.2783,0.2586,0.2593,0,0,0.2133,0.2136,0.2106,0.2117,0.2182,0.2249,0.2381,0.2462,0.2476,0.2562,0.2568,0.2712,0.2722,0.2787,0.2758,0.276,0,0,0,0.21,0.2123,0.213,0.2178,0.2203,0.2367,0.2449,0.2515,0.2658,0.2516,0.2742,0.2744,0.2782,0.2654,0.2657,0.262,0.2619,0.2619,0.2619,0.2176,0.216,0.2209,0.225,0.2318,0.2471,0.2595,0.272,0.2707,0.2804,0.2858,0.3011,0.2878,0.2877,0.2899,0.29,0.29,0.29,0.2901,0.2197,0.2204,0.2299,0.2344,0.2488,0.262,0.28,0.2857,0.3038,0.2998,0.3031,0.2805,0.2886,0.291,0.2908,0.2907,0.2906,0.2905,0.2905,0.2189,0.2218,0.2263,0.2421,0.2596,0.2735,0.2892,0.3036,0.3118,0.3192,0.3031,0.3025,0.3046,0.3212,0.3212,0.3213,0.3213,0.3213,0.3214,0.2169,0.2237,0.2348,0.2517,0.2618,0.2781,0.2968,0.3031,0.3094,0.3121,0.3119,0.3115,0.3105,0.3065,0.322,0.3219,0.3218,0.3218,0.3217,0.2148,0.2228,0.2363,0.2473,0.2692,0.2693,0.288,0.2885,0.3012,0.298,0.3078,0.3079,0.3014,0.3008,0.2965,0.3086,0.3086,0.3086,0.3086,0.2147,0.2201,0.238,0.2509,0.2614,0.2647,0.2491,0.2446,0.2611,0.2647,0.2665,0.2532,0.2547,0.2448,0.2455,0.2397,0.2371,0.2369,0.2368,0.2172,0.2229,0.2318,0.2465,0.2536,0.2478,0.2149,0.1872,0.1988,0.2336,0.2508,0.3044,0.2894,0.2901,0.2781,0.278,0.2699,0,0]},{"header":{"parameterUnit":"m.s-1","parameterCategory":2,"la1":30.2992,"la2":30.254,"lo1":-89.0895,"lo2":-89.0443,"dy":0.0025,"dx":0.0025,"nx":19,"ny":19,"refTime":"2026-05-20T09:00:00:Z","depth":"2","parameterNumber":3,"parameterNumberName":"V-component_of_CURRENTS"},"data":[0,0,0,0.0301,0.0301,0.0258,0.0258,0.0158,0.0157,0,0,0,0,0,0,0,0,0,0,0,0.0304,0.0304,0.0301,0.0301,0.0258,0.0258,0.0158,0.0157,0,0,0,0,0,0,0,0,0,0,0,0.0304,0.0304,0.0304,0.0301,0.0259,0.0258,0.0158,0.0194,0,0,0,0,0,0,0,0,0,0,0.0239,0.0239,0.0304,0.0304,0.0301,0.0259,0.0258,0.0196,0.0192,0.0173,0,0.0179,0,0.0184,0.0152,0.0152,0,0,0,0.0271,0.0242,0.0259,0.0304,0.0301,0.0259,0.0269,0.0194,0.0189,0.0168,0.0178,0.0175,0.0182,0.0151,0.0151,0.019,0.0191,0,0,0.0274,0.0264,0.0262,0.0256,0.0306,0.0271,0.0268,0.0191,0.0176,0.0178,0.0173,0.018,0.0151,0.015,0.0189,0.019,0,0,0,0.0301,0.0265,0.0283,0.026,0.0266,0.0271,0.0267,0.0178,0.0192,0.0172,0.0179,0.015,0.015,0.0188,0.0189,0.0333,0,0,0,0.0301,0.0284,0.0284,0.0273,0.0268,0.0224,0.0256,0.0197,0.0189,0.018,0.015,0.0149,0.0187,0.0189,0.0326,0.0408,0,0,0,0.0303,0.0283,0.029,0.0273,0.0273,0.0226,0.0233,0.0195,0.0195,0.0152,0.0149,0.0186,0.0188,0.0321,0.0398,0.0502,0,0,0,0.0278,0.031,0.0289,0.0331,0.0274,0.0304,0.0233,0.0214,0.0183,0.015,0.0187,0.0189,0.0319,0.0391,0.0495,0.0517,0.055,0,0,0.0316,0.0313,0.0347,0.033,0.0375,0.0307,0.0372,0.0288,0.0216,0.0201,0.0201,0.0329,0.0397,0.0501,0.0652,0.0682,0,0,0,0.036,0.037,0.0383,0.0402,0.0415,0.0452,0.0374,0.0373,0.0354,0.0216,0.0336,0.0375,0.0436,0.0434,0.0458,0.02,0.02,0.02,0.02,0.0359,0.0397,0.0452,0.0496,0.0521,0.0536,0.0581,0.0565,0.0451,0.0481,0.0497,0.0683,0.0683,0.0701,0.0491,0.0492,0.0492,0.0493,0.0493,0.043,0.0494,0.0525,0.059,0.0647,0.0691,0.0773,0.0741,0.0803,0.0669,0.072,0.0592,0.0736,0.0505,0.0503,0.0501,0.05,0.0499,0.0498,0.0445,0.0498,0.0525,0.0647,0.0742,0.0804,0.0983,0.0972,0.0936,0.0996,0.0941,0.0937,0.078,0.0984,0.0984,0.0985,0.0986,0.0987,0.0987,0.0484,0.0526,0.0618,0.072,0.0811,0.0947,0.1091,0.1176,0.1185,0.1122,0.1121,0.0849,0.0833,0.0809,0.1,0.0998,0.0996,0.0995,0.0994,0.0587,0.0588,0.0727,0.082,0.1042,0.1236,0.1331,0.1451,0.1487,0.1484,0.1207,0.1197,0.1157,0.1136,0.1118,0.138,0.138,0.138,0.138,0.0662,0.0672,0.0865,0.1034,0.1267,0.1395,0.1632,0.162,0.1516,0.1399,0.1398,0.1273,0.1258,0.1214,0.119,0.1169,0.1444,0.1444,0.1444,0.0778,0.0804,0.0957,0.1091,0.1369,0.1583,0.1744,0.1615,0.1389,0.1442,0.1361,0.1393,0.1199,0.118,0.1093,0.1063,0.1021,0,0]}],[{"header":{"parameterUnit":"m.s-1","parameterCategory":2,"la1":30.2992,"la2":30.254,"lo1":-89.0895,"lo2":-89.0443,"dy":0.0025,"dx":0.0025,"nx":19,"ny":19,"refTime":"2026-05-20T09:00:00:Z","depth":"4","parameterNumber":2,"parameterNumberName":"U-component_of_CURRENTS"},"data":[0,0,0,0.0823,0.0823,0.0804,0.0804,0.0797,0.0797,0,0,0,0,0,0,0,0,0,0,0,0.082,0.0819,0.0823,0.0823,0.0804,0.0804,0.0796,0.0797,0,0,0,0,0,0,0,0,0,0,0,0.082,0.0819,0.0819,0.0822,0.0804,0.0804,0.0796,0.0805,0,0,0,0,0,0,0,0,0,0,0.0821,0.0831,0.0819,0.0819,0.0822,0.0804,0.0804,0.0805,0.0805,0.0811,0,0.0803,0,0.0806,0.0797,0.0797,0,0,0,0.0818,0.0831,0.0815,0.0819,0.0822,0.0804,0.0811,0.0805,0.0804,0.081,0.0803,0.0803,0.0806,0.0797,0.0797,0.084,0.084,0,0,0.0819,0.0829,0.0816,0.0815,0.0811,0.0812,0.081,0.0804,0.0808,0.0803,0.0803,0.0806,0.0797,0.0797,0.084,0.084,0,0,0,0.0825,0.083,0.0813,0.0815,0.0814,0.0811,0.081,0.0808,0.0799,0.0803,0.0806,0.0797,0.0797,0.0839,0.084,0.095,0,0,0,0.0825,0.0833,0.0814,0.0821,0.0814,0.0813,0.0814,0.0799,0.0799,0.0806,0.0797,0.0797,0.0839,0.0839,0.0946,0.0957,0,0,0,0.0822,0.0834,0.0827,0.0822,0.0816,0.0813,0.0804,0.0799,0.0802,0.0797,0.0797,0.0838,0.0839,0.0943,0.0952,0.1062,0,0,0,0.0839,0.0799,0.0827,0.0781,0.0816,0.0781,0.0804,0.0792,0.0786,0.0797,0.0839,0.084,0.0942,0.0949,0.1058,0.085,0,0,0,0.0788,0.0794,0.0762,0.0785,0.0727,0.0783,0.0791,0.0802,0.081,0.084,0.0841,0.0948,0.0952,0.1061,0.0911,0,0,0,0,0.0744,0.0719,0.0703,0.0684,0.0684,0.0749,0.0765,0.0813,0.0889,0.0813,0.0938,0.0935,0.1002,0.0866,0.0845,0.0845,0.0845,0.0844,0.0844,0.0746,0.0706,0.0653,0.0622,0.0636,0.073,0.0811,0.0893,0.0889,0.0958,0.102,0.1162,0.1021,0.1031,0.1032,0.1033,0.1033,0.1033,0.1034,0.0666,0.0622,0.0628,0.0566,0.0657,0.0723,0.0882,0.0961,0.1131,0.1085,0.1148,0.0982,0.1044,0.1042,0.1041,0.1039,0.1038,0.1038,0.1037,0.065,0.0615,0.0601,0.0571,0.0674,0.0788,0.0958,0.1107,0.121,0.1305,0.1198,0.1241,0.1241,0.1373,0.1374,0.1375,0.1375,0.1375,0.1376,0.0646,0.061,0.0589,0.0588,0.0642,0.079,0.1032,0.1143,0.129,0.1273,0.1353,0.1277,0.1266,0.126,0.1384,0.1383,0.1382,0.1381,0.138,0.0564,0.0608,0.0546,0.0564,0.0643,0.0734,0.0961,0.1141,0.127,0.1307,0.1271,0.1274,0.1217,0.1208,0.1198,0.1309,0.1306,0.1304,0,0.057,0.0561,0.0512,0.0504,0.0552,0.0681,0.081,0.0969,0.1124,0.108,0.1252,0.1203,0.1205,0.1128,0.1117,0.1097,0,0,0,0.055,0.0529,0.0488,0.0454,0.0482,0.0652,0.0842,0.0874,0.1097,0.1149,0.125,0.1264,0.1278,0.141,0.133,0.1317,0.1304,0,0]},{"header":{"parameterUnit":"m.s-1","parameterCategory":2,"la1":30.2992,"la2":30.254,"lo1":-89.0895,"lo2":-89.0443,"dy":0.0025,"dx":0.0025,"nx":19,"ny":19,"refTime":"2026-05-20T09:00:00:Z","depth":"4","parameterNumber":3,"parameterNumberName":"V-component_of_CURRENTS"},"data":[0,0,0,0.0419,0.042,0.0497,0.0497,0.0572,0.0573,0,0,0,0,0,0,0,0,0,0,0,0.0391,0.0391,0.0418,0.0421,0.0497,0.0497,0.0572,0.0573,0,0,0,0,0,0,0,0,0,0,0,0.039,0.0391,0.0392,0.0421,0.0497,0.0497,0.0572,0.0519,0,0,0,0,0,0,0,0,0,0,0.0448,0.0418,0.0391,0.0392,0.0421,0.0497,0.0497,0.0517,0.0523,0.0532,0,0.0548,0,0.0565,0.0578,0.0578,0,0,0,0.0418,0.0414,0.0443,0.0392,0.0422,0.0497,0.0462,0.052,0.0527,0.054,0.0549,0.0553,0.0566,0.0578,0.0579,0.0659,0.0659,0,0,0.0413,0.0395,0.0439,0.0447,0.0447,0.0459,0.0464,0.0524,0.0527,0.055,0.0555,0.0567,0.0579,0.0579,0.0658,0.0659,0,0,0,0.0403,0.0392,0.0421,0.0444,0.0461,0.0462,0.0467,0.0524,0.0537,0.0555,0.0568,0.0579,0.058,0.0658,0.0659,0.0706,0,0,0,0.04,0.0387,0.0419,0.0408,0.046,0.0495,0.0466,0.0533,0.054,0.0568,0.0579,0.0581,0.0658,0.0658,0.0704,0.0711,0,0,0,0.0386,0.0385,0.0398,0.0407,0.0443,0.0495,0.051,0.0535,0.0548,0.0578,0.0581,0.0657,0.0658,0.0702,0.0709,0.0725,0,0,0,0.036,0.0395,0.0397,0.0452,0.0442,0.0532,0.051,0.0571,0.0604,0.058,0.0658,0.0659,0.0701,0.0707,0.0723,0.0703,0,0,0,0.0393,0.0398,0.0436,0.0442,0.0538,0.052,0.0596,0.0621,0.0613,0.0635,0.0637,0.0705,0.0708,0.0725,0.0751,0,0,0,0,0.0442,0.0474,0.0504,0.0561,0.0609,0.0636,0.0664,0.0651,0.0671,0.0636,0.0708,0.0708,0.0717,0.0701,0.0663,0.0662,0.0662,0.0662,0.0662,0.0454,0.0509,0.0586,0.0656,0.0695,0.0726,0.073,0.0716,0.0724,0.0727,0.075,0.0797,0.0783,0.076,0.076,0.076,0.076,0.0761,0.0761,0.0533,0.0589,0.0643,0.0743,0.0769,0.083,0.0805,0.0794,0.0791,0.0778,0.0785,0.0756,0.0766,0.0765,0.0764,0.0763,0.0763,0.0763,0.0762,0.0549,0.0585,0.0662,0.0784,0.0862,0.0896,0.0922,0.0895,0.0841,0.0843,0.0837,0.0823,0.0814,0.087,0.087,0.087,0.087,0.0871,0.0871,0.0534,0.0611,0.0704,0.0829,0.0915,0.0991,0.1008,0.0985,0.0934,0.0879,0.0874,0.0833,0.083,0.082,0.0873,0.0872,0.0872,0.0872,0.0872,0.0575,0.0599,0.0736,0.083,0.1013,0.1059,0.109,0.1025,0.0995,0.0925,0.0884,0.0883,0.0858,0.0854,0.0844,0.0906,0.0906,0.0906,0,0.0576,0.0602,0.0778,0.0916,0.1035,0.1097,0.1079,0.1049,0.0951,0.0941,0.0966,0.0924,0.0921,0.0896,0.0891,0.0882,0,0,0,0.0605,0.0658,0.0774,0.0921,0.1061,0.1064,0.1074,0.1038,0.0983,0.0926,0.0904,0.0904,0.0908,0.0878,0.0837,0.0833,0.0815,0,0]}]]